Probability
6 6 7 7 7 6 5 5 4 4 5 4 2 0 0 0 0 0 0 0 0 0 0 0 0 0 0 0 0 0 0 1 2 2 1 0 0 0 0 1 0 0 0
6 6 7 8 7 6 6 5 4 3 4 4 2 1 0 0 0 0 0 0 0 0 0 0 0 0 0 0 0 0 0 1 2 2 1 0 0 0 0 1 0 0 0
5 5 6 8 7 6 6 5 4 3 3 3 2 1 0 0 0 0 0 0 0 0 0 0 0 0 0 0 0 0 0 1 2 2 1 0 0 0 0 0 0 0 0
3 3 4 6 7 6 6 6 4 3 3 3 2 1 1 1 0 0 0 0 0 0 0 0 0 0 0 0 0 0 0 0 1 1 1 0 0 0 0 0 0 0 0
1 1 2 5 6 7 6 5 4 3 3 2 1 1 1 1 0 0 0 0 0 0 0 0 0 0 0 0 0 0 0 0 0 0 0 0 0 1 1 0 0 0 0
0 1 2 4 6 6 5 4 3 3 2 1 1 1 1 0 0 0 0 0 0 0 0 0 0 0 0 0 0 0 0 0 0 0 0 0 1 2 2 1 0 0 0
3 3 3 4 4 4 4 3 2 2 1 1 2 2 2 1 0 0 0 0 0 0 0 0 0 0 0 0 0 0 0 0 0 0 0 0 1 2 3 1 1 1 0
8 7 5 3 2 2 2 1 1 1 1 1 2 2 2 1 0 0 0 0 0 0 0 0 0 0 0 1 0 0 0 0 0 0 0 0 1 3 3 3 2 2 1
9 7 4 2 1 1 1 0 0 0 0 1 1 1 1 0 0 0 0 0 0 0 0 0 0 0 0 0 0 0 0 0 0 0 0 0 2 3 3 3 3 3 3
7 4 2 0 0 0 0 0 0 0 0 0 0 0 0 0 0 0 0 1 1 1 1 0 0 0 0 0 0 0 0 0 0 0 0 0 1 3 3 3 3 3 3
4 2 0 0 0 0 0 0 0 0 0 0 0 0 0 0 0 0 0 1 2 2 1 1 0 0 0 0 0 0 0 0 0 0 0 0 1 2 3 3 3 3 3
2 1 0 0 0 0 0 0 0 0 0 0 0 0 0 0 0 0 0 1 2 2 1 2 1 0 0 0 0 0 0 0 0 0 0 0 1 2 3 3 3 3 3
2 1 1 1 1 1 0 0 0 0 0 0 0 0 0 0 0 0 0 0 1 1 1 2 1 0 0 0 0 0 0 0 0 0 0 0 1 2 3 3 3 3 3
3 3 3 3 3 2 1 0 0 0 0 0 0 0 0 0 0 0 0 0 0 0 0 1 1 0 0 0 0 0 0 0 0 0 0 0 1 3 4 3 3 3 3
3 3 3 4 4 3 2 1 0 0 0 0 0 0 0 0 0 0 0 0 0 0 0 0 0 0 0 0 0 0 0 0 0 0 0 0 1 4 5 4 3 3 3
1 2 2 3 5 4 3 1 0 0 0 0 0 0 0 0 0 0 0 0 0 0 0 0 0 0 0 0 0 0 0 0 0 0 0 0 1 3 4 4 4 3 3
0 0 0 2 4 5 5 2 0 0 0 0 0 0 0 0 0 0 0 0 0 0 0 0 0 0 0 0 0 0 0 0 0 0 0 0 0 1 2 3 3 3 3
0 1 1 1 2 5 5 4 1 0 0 0 0 0 0 0 0 0 0 0 0 0 0 0 0 0 0 0 0 0 0 0 0 0 0 0 0 0 0 1 2 3 3
1 1 2 1 1 3 5 4 2 0 0 0 0 0 0 0 0 0 0 0 0 0 0 0 0 0 0 0 0 0 0 0 0 0 0 0 0 1 1 0 1 1 2
0 1 2 1 1 2 3 3 1 0 0 0 0 0 0 0 0 0 0 0 0 0 0 0 0 0 0 0 0 0 0 0 0 0 0 0 1 2 1 1 0 0 1
0 1 1 1 0 1 1 2 1 0 0 0 0 0 0 0 0 0 0 0 0 0 0 0 0 0 0 0 0 0 0 0 0 0 0 0 1 2 1 1 1 0 0
1 0 0 0 0 0 0 0 0 0 0 0 0 0 0 0 0 0 0 0 0 0 0 0 0 0 0 0 0 0 0 0 0 0 0 0 1 2 1 0 0 0 0
1 1 0 0 0 0 0 0 0 0 0 0 0 0 0 0 0 0 0 0 0 0 0 0 0 0 0 0 0 0 0 0 0 0 0 0 1 1 0 0 0 0 0
1 1 0 0 0 0 0 0 0 0 0 0 0 0 0 0 0 0 0 0 0 0 0 0 0 0 0 0 0 0 0 0 0 0 0 0 0 0 0 0 0 0 0
0 0 0 0 0 0 0 0 0 0 0 0 0 0 0 0 0 0 0 0 0 0 0 0 0 0 0 0 0 0 0 0 0 0 0 0 0 0 0 0 0 0 0
0 0 1 1 1 0 0 0 0 0 0 0 0 0 0 0 0 0 0 0 0 0 0 0 0 0 0 0 0 0 0 0 0 0 0 0 0 0 0 0 0 0 0
Wind_Speed
4 7 6 6 6 6 6 6 6 6 6 6 7 7 7 7 8 8 8 8 8 9 9 9 10 10 10 11 11 10 10 10 10 10 11 11 11 11 11 10 9 7 11
5 7 6 6 6 6 6 5 5 5 5 5 6 6 7 7 7 7 7 7 7 8 9 9 9 9 10 10 10 10 9 8 8 8 9 9 10 11 11 11 10 7 11
6 7 6 5 6 5 5 5 5 4 5 5 5 6 6 7 7 7 7 7 7 8 9 9 9 9 9 9 9 8 8 6 5 5 5 4 7 11 11 10 10 11 11
6 6 5 5 5 5 5 5 4 4 4 4 5 5 6 6 7 6 7 6 7 8 8 8 8 8 8 8 8 7 6 6 5 4 3 4 5 10 10 10 10 10 10
5 5 6 5 5 5 5 5 4 4 4 4 5 5 6 6 6 6 6 6 7 8 8 8 8 8 8 8 7 6 6 6 6 5 5 5 5 9 10 10 9 9 9
5 5 6 5 5 4 4 4 5 4 4 4 4 5 5 6 6 6 6 6 7 7 7 8 8 8 8 7 7 6 6 5 5 4 5 5 5 9 10 9 9 8 8
5 5 5 4 4 4 4 4 5 4 4 4 4 4 5 6 6 6 6 6 6 7 7 7 8 7 7 7 6 5 5 5 4 4 4 4 5 9 8 8 8 8 8
5 5 5 4 4 3 3 4 4 4 4 4 4 5 5 5 6 6 6 6 6 6 6 6 7 7 6 6 5 5 5 4 4 5 4 4 6 8 7 7 7 7 7
6 5 4 3 4 4 4 3 4 4 4 4 4 5 5 6 6 5 5 5 5 6 6 6 6 6 6 5 5 4 4 4 3 2 4 3 6 7 6 6 7 7 7
5 4 3 2 2 3 3 3 4 4 4 5 5 5 6 6 6 5 5 5 5 5 5 5 5 5 4 4 4 3 2 2 2 3 2 3 6 6 6 6 6 6 6
4 3 3 2 2 2 2 3 3 3 4 4 4 5 4 3 4 4 5 5 5 5 5 5 4 4 2 2 2 1 0 1 2 2 2 4 5 6 5 5 5 5 5
2 2 2 2 1 1 2 3 2 2 2 2 2 3 2 2 2 4 5 5 4 4 4 4 3 2 1 1 1 0 0 1 2 2 3 4 5 5 5 5 5 5 5
1 2 2 2 2 2 1 2 1 1 1 1 2 2 2 2 2 2 2 3 2 3 2 3 2 1 0 0 0 0 0 1 1 1 2 4 4 4 4 4 4 4 4
2 3 2 2 2 2 2 1 1 1 1 1 1 2 1 1 2 2 1 2 1 1 1 1 1 1 1 1 1 1 1 1 2 1 2 4 3 3 3 3 4 4 4
2 2 2 2 2 2 2 1 1 1 1 1 1 1 2 1 1 1 1 1 1 1 1 1 1 1 1 1 0 0 1 1 2 2 2 4 4 3 3 4 4 4 4
1 1 1 2 2 2 2 2 2 2 2 2 2 2 2 2 1 1 1 1 1 1 1 1 1 1 1 1 1 0 0 1 2 2 2 3 4 4 3 3 4 4 3
1 1 1 1 2 2 2 2 2 2 2 2 2 2 3 3 2 1 1 1 1 1 1 1 1 1 1 1 1 1 1 1 1 1 1 2 2 3 3 3 3 3 2
1 1 1 1 1 2 2 2 2 2 3 2 2 2 3 3 2 2 1 1 1 1 1 1 1 1 1 0 0 0 0 0 1 1 1 2 2 2 2 3 2 2 2
2 1 2 2 1 2 2 2 2 3 3 2 2 2 2 3 2 2 1 1 1 1 1 1 1 1 1 0 0 0 0 1 1 1 1 2 2 2 1 2 2 3 2
2 2 2 2 2 2 2 2 2 3 3 2 2 2 3 3 3 2 1 1 2 1 1 1 1 1 0 0 0 0 0 1 1 1 1 1 2 2 2 2 1 1 2
2 2 2 2 1 1 1 1 1 1 2 2 2 3 3 3 3 2 2 2 1 1 1 0 1 1 0 1 1 1 1 1 1 1 1 2 2 2 2 1 1 1 1
2 2 2 2 2 1 1 1 1 2 2 2 2 2 3 3 2 2 2 2 2 1 1 1 1 0 1 0 1 1 0 1 1 1 1 2 2 2 1 1 1 1 1
2 1 1 2 1 1 1 2 2 2 2 1 1 2 2 2 2 2 2 2 1 1 1 1 0 1 1 1 0 1 1 2 0 1 1 1 1 1 1 1 1 1 1
1 1 1 2 2 1 2 2 3 2 1 1 1 1 2 2 2 2 2 2 1 1 1 1 1 1 0 1 1 1 1 1 1 1 1 1 1 1 1 0 0 0 0
1 1 2 2 2 1 2 2 2 2 1 1 2 2 2 2 2 2 2 1 1 1 1 1 1 1 0 1 1 1 1 1 1 1 2 2 1 1 1 1 1 1 0
2 2 2 2 2 1 1 2 2 3 2 2 2 1 1 1 1 1 1 1 1 1 1 1 1 1 1 1 1 1 1 1 2 2 3 3 2 2 1 1 1 1 1
Wind_Direction
99 115 124 122 120 113 106 101 102 103 102 104 107 109 109 106 101 97 95 97 97 95 93 89 86 82 77 73 69 69 73 72 72 71 71 71 72 69 68 66 63 64 70
102 115 119 118 118 114 109 106 104 107 109 111 112 114 115 113 109 106 102 101 101 99 95 91 88 84 80 76 74 69 69 74 75 75 71 72 75 72 67 66 68 71 72
99 113 123 110 113 111 112 110 106 113 117 117 117 115 118 116 112 109 105 104 106 102 98 94 90 86 84 81 76 73 68 63 69 71 71 72 75 75 71 67 69 72 71
106 117 127 111 111 108 107 109 109 112 120 123 120 118 118 118 115 111 109 106 105 101 97 97 93 90 88 85 83 75 66 45 45 58 69 70 71 76 72 67 67 71 71
104 113 117 115 111 109 111 110 108 105 111 121 121 120 119 120 118 112 110 108 104 101 100 97 95 95 92 91 86 76 57 40 27 56 69 68 69 77 73 68 66 67 70
101 101 113 118 117 115 116 113 108 104 103 108 119 123 121 119 117 111 108 105 105 102 100 99 99 96 93 92 86 73 56 30 32 53 70 71 75 77 73 70 69 65 69
93 98 112 104 120 121 120 118 113 104 100 100 109 117 118 116 110 108 106 103 103 103 101 100 97 94 90 89 83 69 51 27 51 51 62 68 78 83 79 72 70 67 69
94 97 110 89 96 97 109 119 114 109 104 99 102 104 108 109 108 106 103 100 101 102 102 100 97 96 92 85 76 67 51 39 60 65 62 69 78 85 82 74 70 69 69
80 82 97 117 113 97 87 98 110 109 104 99 99 97 92 100 101 98 100 100 104 104 105 103 98 99 97 87 72 62 51 38 53 61 67 71 78 85 84 79 74 73 70
70 69 71 86 107 119 115 103 103 112 107 97 89 85 86 96 105 102 98 101 106 109 110 108 105 102 99 90 76 61 44 26 72 69 63 77 83 86 87 84 81 79 75
67 63 58 61 76 105 121 117 113 116 112 106 107 105 101 108 112 107 103 97 102 107 114 117 114 106 95 88 84 56 48 71 76 72 71 83 89 90 85 84 87 89 83
73 68 63 54 65 86 103 116 125 124 123 128 129 126 120 100 95 101 99 101 107 111 118 126 128 124 97 99 77 349 104 87 80 75 84 89 93 95 91 89 91 97 94
108 74 60 62 69 79 88 107 111 120 120 117 108 101 101 96 102 109 112 108 118 122 117 121 123 117 94 86 92 72 99 106 94 80 93 102 98 100 99 97 96 96 98
82 70 53 54 69 75 81 90 94 101 104 109 109 98 102 102 105 110 107 112 109 105 104 99 89 75 55 48 85 70 86 106 106 100 100 102 99 102 99 102 99 95 95
60 52 53 47 68 76 91 90 85 89 109 105 96 82 82 102 107 98 99 91 92 93 96 93 79 74 49 32 24 49 89 117 122 109 111 106 104 106 103 103 101 95 95
61 64 65 60 66 73 84 85 78 69 79 83 82 68 68 81 90 99 95 81 64 67 67 72 98 100 69 45 21 20 105 131 130 123 132 121 103 97 93 92 96 92 89
93 76 76 77 77 89 87 82 84 75 74 73 74 66 61 66 72 77 93 90 85 78 76 72 60 78 82 64 37 18 64 114 115 127 137 128 116 98 88 87 84 84 82
110 97 100 78 92 103 97 86 81 79 76 71 72 67 64 58 64 74 72 69 93 100 94 100 93 82 64 50 9 331 6 99 130 127 109 117 126 116 98 84 73 68 58
119 108 100 88 90 93 101 99 86 81 77 72 75 73 69 64 59 69 62 47 68 86 81 84 85 105 137 144 294 257 184 145 116 96 103 116 123 115 111 101 79 60 41
101 93 92 87 71 84 107 104 93 82 74 68 69 70 71 61 52 58 64 51 54 69 53 60 90 72 129 140 75 31 56 144 118 115 137 129 120 108 100 89 102 56 29
90 92 99 100 84 94 112 120 116 103 88 75 65 58 68 63 57 58 57 55 52 63 47 74 105 102 97 78 84 48 359 50 119 146 163 151 130 121 107 88 82 67 24
104 102 113 118 125 123 132 149 133 120 105 97 86 73 66 65 63 61 60 55 53 61 52 47 70 148 172 125 130 143 229 323 330 231 170 155 148 120 107 97 87 70 61
67 71 97 117 123 115 119 124 112 100 91 89 73 81 65 65 60 65 68 65 61 72 65 3 50 107 204 235 173 158 170 207 239 258 228 168 139 125 120 105 88 68 75
59 55 75 86 90 94 102 115 123 134 139 136 122 111 92 79 69 52 57 62 62 61 54 344 338 336 206 242 274 292 258 170 166 213 270 178 122 134 133 95 108 109 83
81 76 80 76 72 86 104 122 136 124 115 107 106 113 104 92 77 48 42 55 50 30 27 357 337 333 274 252 251 275 280 289 220 200 233 216 224 213 186 190 187 189 151
74 74 82 94 72 61 106 125 127 121 116 115 107 118 121 115 95 58 39 38 20 8 349 304 290 280 273 269 274 252 219 215 224 233 236 217 218 220 213 202 195 201 180